Time,TemperatureF,DewpointF,PressureIn,WindDirection,WindDirectionDegrees,WindSpeedMPH,WindSpeedGustMPH,Humidity,HourlyPrecipIn,Conditions,Clouds,dailyrainin,SoftwareType,DateUTC
2013-05-28 00:01:00,52.4,48.2,29.56,SSW,203,0.7,3.4,86,0.00,,,0.00,WUHU216HW,2013-05-28 07:01:00,
2013-05-28 00:06:00,52.6,48.4,29.56,SW,225,0.4,2.9,86,0.00,,,0.00,WUHU216HW,2013-05-28 07:06:00,
2013-05-28 00:11:00,52.4,48.2,29.56,WSW,248,0.0,0.9,86,0.01,,,0.01,WUHU216HW,2013-05-28 07:11:00,
2013-05-28 00:16:00,52.4,48.2,29.56,SE,135,0.4,0.9,86,0.01,,,0.01,WUHU216HW,2013-05-28 07:16:00,
2013-05-28 00:21:00,52.4,48.2,29.56,WSW,248,1.1,1.8,86,0.01,,,0.01,WUHU216HW,2013-05-28 07:21:00,
2013-05-28 00:26:00,52.2,48.1,29.56,SSW,203,0.0,1.8,86,0.01,,,0.01,WUHU216HW,2013-05-28 07:26:00,
2013-05-28 00:31:00,52.2,48.1,29.56,SW,225,0.0,1.1,86,0.01,,,0.01,WUHU216HW,2013-05-28 07:31:00,
2013-05-28 00:36:00,52.2,48.1,29.56,South,180,1.8,1.8,86,0.01,,,0.01,WUHU216HW,2013-05-28 07:36:00,
2013-05-28 00:41:00,52.2,48.1,29.56,SE,135,1.6,2.5,86,0.01,,,0.01,WUHU216HW,2013-05-28 07:41:00,
2013-05-28 00:46:00,52.2,48.4,29.56,SE,135,1.1,2.9,87,0.01,,,0.01,WUHU216HW,2013-05-28 07:46:00,
2013-05-28 00:51:00,52.2,48.4,29.56,SE,135,1.3,2.9,87,0.01,,,0.01,WUHU216HW,2013-05-28 07:51:00,
2013-05-28 00:56:00,52.2,48.4,29.56,SE,135,1.3,2.9,87,0.01,,,0.01,WUHU216HW,2013-05-28 07:56:00,
2013-05-28 01:01:00,52.0,48.3,29.56,SE,135,1.8,2.9,87,0.01,,,0.01,WUHU216HW,2013-05-28 08:01:00,
2013-05-28 01:06:00,52.0,48.3,29.56,SSE,158,2.2,2.2,87,0.00,,,0.01,WUHU216HW,2013-05-28 08:06:00,
2013-05-28 01:11:00,51.8,48.1,29.56,SE,135,2.0,2.5,87,0.00,,,0.01,WUHU216HW,2013-05-28 08:11:00,
2013-05-28 01:16:00,51.8,48.1,29.56,ESE,113,1.1,2.7,87,0.00,,,0.01,WUHU216HW,2013-05-28 08:16:00,
2013-05-28 01:21:00,51.7,47.9,29.56,South,180,1.8,2.7,87,0.00,,,0.01,WUHU216HW,2013-05-28 08:21:00,
2013-05-28 01:26:00,51.5,47.7,29.57,SSW,203,0.7,2.0,87,0.00,,,0.01,WUHU216HW,2013-05-28 08:26:00,
2013-05-28 01:31:00,51.5,47.7,29.57,SE,135,2.2,2.5,87,0.00,,,0.01,WUHU216HW,2013-05-28 08:31:00,
2013-05-28 01:36:00,51.5,47.7,29.57,SE,135,2.7,2.7,87,0.00,,,0.01,WUHU216HW,2013-05-28 08:36:00,
2013-05-28 01:41:00,51.3,47.5,29.57,SSE,158,2.7,2.9,87,0.00,,,0.01,WUHU216HW,2013-05-28 08:41:00,
2013-05-28 01:46:00,51.3,47.5,29.57,SSE,158,3.4,4.0,87,0.00,,,0.01,WUHU216HW,2013-05-28 08:46:00,
2013-05-28 01:51:00,51.1,47.6,29.57,SSE,158,4.0,4.0,88,0.00,,,0.01,WUHU216HW,2013-05-28 08:51:00,
2013-05-28 01:56:00,51.1,47.6,29.57,SSE,158,2.0,4.0,88,0.00,,,0.01,WUHU216HW,2013-05-28 08:56:00,
2013-05-28 02:01:00,51.1,47.6,29.57,SSE,158,1.8,4.0,88,0.00,,,0.01,WUHU216HW,2013-05-28 09:01:00,
2013-05-28 02:06:00,51.3,47.8,29.57,SE,135,2.0,2.7,88,0.00,,,0.01,WUHU216HW,2013-05-28 09:06:00,
2013-05-28 02:11:00,51.1,47.6,29.57,SSE,158,2.0,2.7,88,0.00,,,0.01,WUHU216HW,2013-05-28 09:11:00,
2013-05-28 02:16:00,51.1,47.6,29.57,SE,135,1.1,2.7,88,0.00,,,0.01,WUHU216HW,2013-05-28 09:16:00,
2013-05-28 02:21:00,51.1,47.6,29.57,SSE,158,1.8,2.0,88,0.00,,,0.01,WUHU216HW,2013-05-28 09:21:00,
2013-05-28 02:26:00,51.1,47.6,29.57,South,180,2.2,2.2,88,0.00,,,0.01,WUHU216HW,2013-05-28 09:26:00,
2013-05-28 02:31:00,51.1,47.6,29.57,SSW,203,1.8,2.5,88,0.00,,,0.01,WUHU216HW,2013-05-28 09:31:00,
2013-05-28 02:36:00,51.1,47.6,29.57,South,180,2.5,2.5,88,0.00,,,0.01,WUHU216HW,2013-05-28 09:36:00,
2013-05-28 02:41:00,51.1,47.6,29.57,SSE,158,2.7,2.7,88,0.00,,,0.01,WUHU216HW,2013-05-28 09:41:00,
2013-05-28 02:46:00,51.1,47.6,29.57,SSE,158,2.5,2.7,88,0.00,,,0.01,WUHU216HW,2013-05-28 09:46:00,
2013-05-28 02:51:00,51.1,47.6,29.57,SE,135,3.4,3.4,88,0.00,,,0.01,WUHU216HW,2013-05-28 09:51:00,
2013-05-28 02:56:00,51.1,48.0,29.58,SE,135,3.4,4.0,89,0.00,,,0.01,WUHU216HW,2013-05-28 09:56:00,
2013-05-28 03:01:00,51.1,48.0,29.57,SE,135,4.0,4.5,89,0.00,,,0.01,WUHU216HW,2013-05-28 10:01:00,
2013-05-28 03:06:00,50.9,47.8,29.58,SSE,158,2.9,4.5,89,0.00,,,0.01,WUHU216HW,2013-05-28 10:06:00,
2013-05-28 03:11:00,50.9,47.8,29.58,SSE,158,2.5,4.0,89,0.00,,,0.01,WUHU216HW,2013-05-28 10:11:00,
2013-05-28 03:16:00,50.9,47.8,29.58,SE,135,3.4,3.8,89,0.00,,,0.01,WUHU216HW,2013-05-28 10:16:00,
2013-05-28 03:21:00,50.9,47.8,29.58,SE,135,3.1,3.8,89,0.00,,,0.01,WUHU216HW,2013-05-28 10:21:00,
2013-05-28 03:26:00,50.9,47.8,29.58,SE,135,3.6,3.6,89,0.01,,,0.02,WUHU216HW,2013-05-28 10:26:00,
2013-05-28 03:31:00,50.9,47.8,29.58,ESE,113,4.0,4.0,89,0.01,,,0.02,WUHU216HW,2013-05-28 10:31:00,
2013-05-28 03:36:00,50.9,47.8,29.58,SE,135,2.5,4.7,89,0.01,,,0.02,WUHU216HW,2013-05-28 10:36:00,
2013-05-28 03:41:00,50.9,47.8,29.58,SSW,203,3.4,5.8,89,0.01,,,0.02,WUHU216HW,2013-05-28 10:41:00,
2013-05-28 03:46:00,50.9,47.8,29.58,SSE,158,4.0,5.8,89,0.01,,,0.02,WUHU216HW,2013-05-28 10:46:00,
2013-05-28 03:51:00,50.9,47.8,29.58,SSE,158,2.5,4.0,89,0.01,,,0.02,WUHU216HW,2013-05-28 10:51:00,
2013-05-28 03:56:00,50.9,47.8,29.58,SSE,158,2.5,3.6,89,0.01,,,0.02,WUHU216HW,2013-05-28 10:56:00,
2013-05-28 04:01:00,50.9,47.8,29.58,SSE,158,3.4,3.4,89,0.01,,,0.02,WUHU216HW,2013-05-28 11:01:00,
2013-05-28 04:06:00,50.9,47.8,29.58,WSW,248,1.3,3.8,89,0.01,,,0.02,WUHU216HW,2013-05-28 11:06:00,
2013-05-28 04:11:00,50.9,47.8,29.58,SW,225,0.9,3.8,89,0.01,,,0.02,WUHU216HW,2013-05-28 11:11:00,
2013-05-28 04:16:00,50.9,47.8,29.58,South,180,1.3,1.3,89,0.01,,,0.02,WUHU216HW,2013-05-28 11:16:00,
2013-05-28 04:21:00,50.9,47.8,29.58,SSE,158,2.2,2.7,89,0.00,,,0.02,WUHU216HW,2013-05-28 11:21:00,
2013-05-28 04:26:00,50.9,47.8,29.58,SE,135,2.2,4.7,89,0.00,,,0.02,WUHU216HW,2013-05-28 11:26:00,
2013-05-28 04:31:00,50.9,47.8,29.58,SSE,158,2.5,4.7,89,0.00,,,0.02,WUHU216HW,2013-05-28 11:31:00,
2013-05-28 04:36:00,50.9,47.8,29.59,SSE,158,3.4,3.4,89,0.00,,,0.02,WUHU216HW,2013-05-28 11:36:00,
2013-05-28 04:41:00,50.9,47.8,29.58,SSE,158,3.8,5.4,89,0.00,,,0.02,WUHU216HW,2013-05-28 11:41:00,
2013-05-28 04:45:00,50.9,47.8,29.58,SSE,158,2.5,5.4,89,0.00,,,0.02,WUHU216HW,2013-05-28 11:45:00,
2013-05-28 04:50:00,50.9,47.8,29.59,SSE,158,2.5,3.8,89,0.00,,,0.02,WUHU216HW,2013-05-28 11:50:00,
2013-05-28 04:55:00,51.1,48.0,29.59,SSE,158,3.4,3.4,89,0.00,,,0.02,WUHU216HW,2013-05-28 11:55:00,
2013-05-28 05:00:00,51.1,48.0,29.59,SSE,158,1.6,3.4,89,0.00,,,0.02,WUHU216HW,2013-05-28 12:00:00,
2013-05-28 05:05:00,51.1,48.0,29.59,SSW,203,1.8,3.4,89,0.00,,,0.02,WUHU216HW,2013-05-28 12:05:00,
2013-05-28 05:10:00,51.1,48.0,29.59,SE,135,2.5,2.5,89,0.00,,,0.02,WUHU216HW,2013-05-28 12:10:00,
2013-05-28 05:15:00,51.1,48.0,29.59,SE,135,2.2,2.7,89,0.00,,,0.02,WUHU216HW,2013-05-28 12:15:00,
2013-05-28 05:20:00,51.1,48.0,29.59,SSE,158,2.2,2.7,89,0.00,,,0.02,WUHU216HW,2013-05-28 12:20:00,
2013-05-28 05:25:00,51.1,48.0,29.59,SE,135,3.1,3.1,89,0.00,,,0.02,WUHU216HW,2013-05-28 12:25:00,
2013-05-28 05:30:00,51.1,48.0,29.59,SE,135,2.5,3.1,89,0.00,,,0.02,WUHU216HW,2013-05-28 12:30:00,
2013-05-28 05:35:00,51.1,48.0,29.59,SE,135,1.8,3.1,89,0.00,,,0.02,WUHU216HW,2013-05-28 12:35:00,
2013-05-28 05:40:00,51.1,48.0,29.59,SE,135,3.8,3.8,89,0.00,,,0.02,WUHU216HW,2013-05-28 12:40:00,
2013-05-28 05:45:00,50.9,47.8,29.59,ESE,113,6.9,6.9,89,0.00,,,0.02,WUHU216HW,2013-05-28 12:45:00,
2013-05-28 05:50:00,50.9,47.8,29.59,SE,135,4.5,6.9,89,0.00,,,0.02,WUHU216HW,2013-05-28 12:50:00,
2013-05-28 05:55:00,50.9,47.8,29.59,SE,135,4.9,6.9,89,0.00,,,0.02,WUHU216HW,2013-05-28 12:55:00,
2013-05-28 06:00:00,50.9,47.8,29.59,SE,135,4.5,5.6,89,0.00,,,0.02,WUHU216HW,2013-05-28 13:00:00,
2013-05-28 06:05:00,50.8,47.6,29.59,SE,135,4.3,6.0,89,0.00,,,0.02,WUHU216HW,2013-05-28 13:05:00,
2013-05-28 06:10:00,50.9,47.8,29.59,SE,135,6.3,6.3,89,0.00,,,0.02,WUHU216HW,2013-05-28 13:10:00,
2013-05-28 06:15:00,50.8,47.6,29.59,SE,135,6.3,6.3,89,0.00,,,0.02,WUHU216HW,2013-05-28 13:15:00,
2013-05-28 06:20:00,50.8,47.6,29.59,SE,135,5.6,7.4,89,0.00,,,0.02,WUHU216HW,2013-05-28 13:20:00,
2013-05-28 06:25:00,50.8,47.6,29.59,SSE,158,5.4,7.4,89,0.00,,,0.02,WUHU216HW,2013-05-28 13:25:00,
2013-05-28 06:30:00,50.8,47.6,29.60,SSE,158,3.6,6.7,89,0.00,,,0.02,WUHU216HW,2013-05-28 13:30:00,
2013-05-28 06:35:00,50.8,47.3,29.60,SSE,158,3.8,6.5,88,0.00,,,0.02,WUHU216HW,2013-05-28 13:35:00,
2013-05-28 06:40:00,50.8,47.6,29.60,SSE,158,1.8,5.4,89,0.00,,,0.02,WUHU216HW,2013-05-28 13:40:00,
2013-05-28 06:45:00,50.9,47.8,29.60,SSE,158,1.3,3.8,89,0.00,,,0.02,WUHU216HW,2013-05-28 13:45:00,
2013-05-28 06:50:00,51.1,48.0,29.60,SSE,158,3.1,3.4,89,0.00,,,0.02,WUHU216HW,2013-05-28 13:50:00,
2013-05-28 06:55:00,51.3,48.2,29.60,SE,135,2.7,3.6,89,0.00,,,0.02,WUHU216HW,2013-05-28 13:55:00,
2013-05-28 07:00:00,51.5,48.3,29.60,SE,135,2.5,3.6,89,0.00,,,0.02,WUHU216HW,2013-05-28 14:00:00,
2013-05-28 07:05:00,51.7,48.5,29.60,SE,135,4.0,4.0,89,0.00,,,0.02,WUHU216HW,2013-05-28 14:05:00,
2013-05-28 07:10:00,51.8,48.7,29.60,SE,135,5.1,6.0,89,0.00,,,0.02,WUHU216HW,2013-05-28 14:10:00,
2013-05-28 07:15:00,52.2,49.1,29.60,SE,135,5.4,6.0,89,0.00,,,0.02,WUHU216HW,2013-05-28 14:15:00,
2013-05-28 07:20:00,52.7,49.6,29.60,SE,135,5.1,5.6,89,0.00,,,0.02,WUHU216HW,2013-05-28 14:20:00,
2013-05-28 07:25:00,52.9,49.8,29.60,SE,135,4.7,5.6,89,0.00,,,0.02,WUHU216HW,2013-05-28 14:25:00,
2013-05-28 07:30:00,52.9,49.4,29.60,SE,135,2.9,7.2,88,0.00,,,0.02,WUHU216HW,2013-05-28 14:30:00,
2013-05-28 07:35:00,53.1,49.6,29.60,SSE,158,4.7,7.2,88,0.00,,,0.02,WUHU216HW,2013-05-28 14:35:00,
2013-05-28 07:40:00,53.1,49.3,29.60,SE,135,3.6,5.6,87,0.00,,,0.02,WUHU216HW,2013-05-28 14:40:00,
2013-05-28 07:45:00,53.1,49.3,29.60,SSE,158,6.9,6.9,87,0.00,,,0.02,WUHU216HW,2013-05-28 14:45:00,
2013-05-28 07:50:00,53.1,49.0,29.60,SSE,158,4.3,6.9,86,0.00,,,0.02,WUHU216HW,2013-05-28 14:50:00,
2013-05-28 07:55:00,53.1,49.3,29.60,SE,135,7.6,7.6,87,0.00,,,0.02,WUHU216HW,2013-05-28 14:55:00,
2013-05-28 08:00:00,53.1,49.6,29.60,SE,135,8.5,8.5,88,0.00,,,0.02,WUHU216HW,2013-05-28 15:00:00,
2013-05-28 08:05:00,53.3,49.8,29.60,SSE,158,4.5,8.7,88,0.00,,,0.02,WUHU216HW,2013-05-28 15:05:00,
2013-05-28 08:10:00,53.3,49.5,29.61,SSE,158,8.3,8.7,87,0.00,,,0.02,WUHU216HW,2013-05-28 15:10:00,
2013-05-28 08:15:00,53.1,49.3,29.61,SSE,158,6.9,8.5,87,0.00,,,0.02,WUHU216HW,2013-05-28 15:15:00,
2013-05-28 08:20:00,53.3,49.5,29.61,SSE,158,4.7,8.5,87,0.00,,,0.02,WUHU216HW,2013-05-28 15:20:00,
2013-05-28 08:25:00,53.1,49.3,29.61,SSE,158,6.0,7.2,87,0.00,,,0.02,WUHU216HW,2013-05-28 15:25:00,
2013-05-28 08:30:00,53.1,49.6,29.61,SE,135,4.0,6.7,88,0.00,,,0.02,WUHU216HW,2013-05-28 15:30:00,
2013-05-28 08:35:00,53.3,49.8,29.61,SE,135,5.8,6.7,88,0.01,,,0.03,WUHU216HW,2013-05-28 15:35:00,
2013-05-28 08:40:00,53.3,49.8,29.61,SE,135,4.9,6.9,88,0.01,,,0.03,WUHU216HW,2013-05-28 15:40:00,
2013-05-28 08:45:00,53.3,50.1,29.61,SE,135,6.5,7.6,89,0.01,,,0.03,WUHU216HW,2013-05-28 15:45:00,
2013-05-28 08:50:00,53.1,50.0,29.61,SE,135,5.1,7.6,89,0.01,,,0.03,WUHU216HW,2013-05-28 15:50:00,
2013-05-28 08:55:00,52.9,49.8,29.61,SSE,158,8.7,8.7,89,0.01,,,0.03,WUHU216HW,2013-05-28 15:55:00,
2013-05-28 09:00:00,52.9,49.8,29.61,SSE,158,4.0,8.7,89,0.01,,,0.03,WUHU216HW,2013-05-28 16:00:00,
2013-05-28 09:05:00,52.9,49.8,29.61,SE,135,6.0,8.7,89,0.01,,,0.03,WUHU216HW,2013-05-28 16:05:00,
2013-05-28 09:10:00,52.9,49.8,29.61,SSE,158,5.4,6.7,89,0.01,,,0.03,WUHU216HW,2013-05-28 16:10:00,
2013-05-28 09:15:00,53.1,50.0,29.61,SSE,158,4.5,6.7,89,0.01,,,0.03,WUHU216HW,2013-05-28 16:15:00,
2013-05-28 09:20:00,53.3,50.1,29.61,SE,135,5.8,6.9,89,0.01,,,0.03,WUHU216HW,2013-05-28 16:20:00,
2013-05-28 09:25:00,53.6,50.5,29.62,SSE,158,3.1,6.9,89,0.01,,,0.03,WUHU216HW,2013-05-28 16:25:00,
2013-05-28 09:30:00,53.6,50.5,29.62,SSE,158,6.3,6.5,89,0.01,,,0.03,WUHU216HW,2013-05-28 16:30:00,
2013-05-28 09:35:00,53.8,50.7,29.62,SE,135,6.9,7.6,89,0.00,,,0.03,WUHU216HW,2013-05-28 16:35:00,
2013-05-28 09:40:00,53.8,50.3,29.62,SSE,158,5.6,7.6,88,0.00,,,0.03,WUHU216HW,2013-05-28 16:40:00,
2013-05-28 09:45:00,54.0,50.5,29.62,SE,135,6.7,8.9,88,0.00,,,0.03,WUHU216HW,2013-05-28 16:45:00,
2013-05-28 09:50:00,54.4,51.2,29.62,SSE,158,7.6,8.9,89,0.00,,,0.03,WUHU216HW,2013-05-28 16:50:00,
2013-05-28 09:55:00,55.1,51.8,29.61,SE,135,8.5,8.7,89,0.00,,,0.03,WUHU216HW,2013-05-28 16:55:00,
2013-05-28 10:00:00,55.4,52.2,29.61,SE,135,6.0,8.7,89,0.00,,,0.03,WUHU216HW,2013-05-28 17:00:00,
2013-05-28 10:05:00,56.0,52.5,29.61,ESE,113,8.5,8.7,88,0.00,,,0.03,WUHU216HW,2013-05-28 17:05:00,
2013-05-28 10:10:00,56.3,52.8,29.61,ESE,113,9.4,10.7,88,0.00,,,0.03,WUHU216HW,2013-05-28 17:10:00,
2013-05-28 10:15:00,56.7,52.6,29.61,SE,135,6.0,10.7,86,0.00,,,0.03,WUHU216HW,2013-05-28 17:15:00,
2013-05-28 10:20:00,57.1,52.6,29.61,SE,135,10.5,11.6,85,0.00,,,0.03,WUHU216HW,2013-05-28 17:20:00,
2013-05-28 10:25:00,57.4,52.6,29.61,SSE,158,10.1,11.6,84,0.00,,,0.03,WUHU216HW,2013-05-28 17:25:00,
2013-05-28 10:30:00,57.6,52.1,29.61,SSE,158,10.7,15.2,82,0.00,,,0.03,WUHU216HW,2013-05-28 17:30:00,
2013-05-28 10:35:00,57.6,51.9,29.61,SE,135,9.6,15.2,81,0.00,,,0.03,WUHU216HW,2013-05-28 17:35:00,
2013-05-28 10:40:00,57.4,51.7,29.61,SSE,158,11.0,13.4,81,0.00,,,0.03,WUHU216HW,2013-05-28 17:40:00,
2013-05-28 10:45:00,57.6,51.9,29.61,SSE,158,8.3,11.4,81,0.00,,,0.03,WUHU216HW,2013-05-28 17:45:00,
2013-05-28 10:50:00,57.6,51.5,29.62,SE,135,10.1,11.4,80,0.00,,,0.03,WUHU216HW,2013-05-28 17:50:00,
2013-05-28 10:55:00,57.2,51.5,29.62,SW,225,1.6,11.4,81,0.01,,,0.04,WUHU216HW,2013-05-28 17:55:00,
2013-05-28 11:00:00,57.1,51.6,29.62,SSW,203,2.0,11.4,82,0.01,,,0.04,WUHU216HW,2013-05-28 18:00:00,
2013-05-28 11:05:00,57.2,51.8,29.62,SE,135,1.1,2.7,82,0.01,,,0.04,WUHU216HW,2013-05-28 18:05:00,
2013-05-28 11:10:00,57.4,51.9,29.62,SSW,203,3.1,5.6,82,0.01,,,0.04,WUHU216HW,2013-05-28 18:10:00,
2013-05-28 11:15:00,57.6,51.5,29.62,SW,225,6.0,6.0,80,0.01,,,0.04,WUHU216HW,2013-05-28 18:15:00,
2013-05-28 11:20:00,57.6,51.1,29.62,SW,225,4.9,6.7,79,0.01,,,0.04,WUHU216HW,2013-05-28 18:20:00,
2013-05-28 11:25:00,58.0,51.8,29.62,SE,135,6.7,6.9,80,0.01,,,0.04,WUHU216HW,2013-05-28 18:25:00,
2013-05-28 11:30:00,58.3,52.2,29.62,ESE,113,12.8,12.8,80,0.01,,,0.04,WUHU216HW,2013-05-28 18:30:00,
2013-05-28 11:35:00,58.7,52.6,29.62,ESE,113,6.3,12.8,80,0.01,,,0.04,WUHU216HW,2013-05-28 18:35:00,
2013-05-28 11:40:00,58.9,52.7,29.62,SE,135,6.9,12.8,80,0.01,,,0.04,WUHU216HW,2013-05-28 18:40:00,
2013-05-28 11:45:00,58.9,52.7,29.62,South,180,7.4,11.2,80,0.01,,,0.04,WUHU216HW,2013-05-28 18:45:00,
2013-05-28 11:50:00,59.2,53.1,29.62,SE,135,3.1,8.7,80,0.01,,,0.04,WUHU216HW,2013-05-28 18:50:00,
2013-05-28 11:55:00,59.9,53.5,29.62,ESE,113,6.3,8.3,79,0.00,,,0.04,WUHU216HW,2013-05-28 18:55:00,
2013-05-28 12:00:00,59.9,53.5,29.62,SE,135,6.3,8.3,79,0.00,,,0.04,WUHU216HW,2013-05-28 19:00:00,
2013-05-28 12:05:00,59.8,52.6,29.62,South,180,4.0,8.5,77,0.00,,,0.04,WUHU216HW,2013-05-28 19:05:00,
2013-05-28 12:10:00,59.0,51.1,29.63,SSW,203,2.5,8.5,75,0.00,,,0.04,WUHU216HW,2013-05-28 19:10:00,
2013-05-28 12:15:00,58.7,50.8,29.63,SSE,158,2.9,6.3,75,0.00,,,0.04,WUHU216HW,2013-05-28 19:15:00,
2013-05-28 12:20:00,58.3,50.4,29.63,SSW,203,2.9,6.3,75,0.00,,,0.04,WUHU216HW,2013-05-28 19:20:00,
2013-05-28 12:25:00,58.3,50.8,29.63,SE,135,7.4,7.4,76,0.00,,,0.04,WUHU216HW,2013-05-28 19:25:00,
2013-05-28 12:30:00,58.5,50.9,29.63,WSW,248,3.6,8.1,76,0.00,,,0.04,WUHU216HW,2013-05-28 19:30:00,
2013-05-28 12:35:00,59.2,52.0,29.63,SSE,158,9.8,9.8,77,0.00,,,0.04,WUHU216HW,2013-05-28 19:35:00,
2013-05-28 12:40:00,59.9,52.4,29.63,South,180,2.9,9.8,76,0.00,,,0.04,WUHU216HW,2013-05-28 19:40:00,
2013-05-28 12:45:00,60.1,51.8,29.63,WSW,248,7.2,9.8,74,0.00,,,0.04,WUHU216HW,2013-05-28 19:45:00,
2013-05-28 12:50:00,59.6,50.6,29.64,South,180,4.7,7.2,72,0.00,,,0.04,WUHU216HW,2013-05-28 19:50:00,
2013-05-28 12:55:00,59.6,51.3,29.64,SE,135,9.4,9.4,74,0.00,,,0.04,WUHU216HW,2013-05-28 19:55:00,
2013-05-28 13:00:00,59.8,51.8,29.63,SE,135,7.8,10.5,75,0.00,,,0.04,WUHU216HW,2013-05-28 20:00:00,
2013-05-28 13:05:00,60.1,52.6,29.63,SE,135,2.7,10.5,76,0.00,,,0.04,WUHU216HW,2013-05-28 20:05:00,
2013-05-28 13:10:00,60.5,51.5,29.63,SW,225,6.0,8.1,72,0.00,,,0.04,WUHU216HW,2013-05-28 20:10:00,
2013-05-28 13:15:00,60.5,51.1,29.64,SSW,203,7.4,10.5,71,0.00,,,0.04,WUHU216HW,2013-05-28 20:15:00,
2013-05-28 13:20:00,60.5,51.1,29.63,West,270,9.2,12.5,71,0.00,,,0.04,WUHU216HW,2013-05-28 20:20:00,
2013-05-28 13:25:00,60.7,50.9,29.64,WSW,248,5.8,12.5,70,0.00,,,0.04,WUHU216HW,2013-05-28 20:25:00,
2013-05-28 13:30:00,60.5,51.1,29.64,SW,225,7.6,12.8,71,0.00,,,0.04,WUHU216HW,2013-05-28 20:30:00,
2013-05-28 13:35:00,60.7,50.5,29.64,WSW,248,9.8,12.8,69,0.00,,,0.04,WUHU216HW,2013-05-28 20:35:00,
2013-05-28 13:40:00,61.2,52.2,29.64,WSW,248,5.8,9.8,72,0.00,,,0.04,WUHU216HW,2013-05-28 20:40:00,
2013-05-28 13:45:00,61.7,52.3,29.64,SSW,203,4.9,9.8,71,0.00,,,0.04,WUHU216HW,2013-05-28 20:45:00,
2013-05-28 13:50:00,61.9,52.5,29.64,SW,225,3.1,8.1,71,0.00,,,0.04,WUHU216HW,2013-05-28 20:50:00,
2013-05-28 13:55:00,62.3,52.4,29.64,SSE,158,11.4,16.8,70,0.00,,,0.04,WUHU216HW,2013-05-28 20:55:00,
2013-05-28 14:00:00,62.6,50.7,29.63,WNW,293,8.3,16.8,65,0.00,,,0.04,WUHU216HW,2013-05-28 21:00:00,
2013-05-28 14:05:00,62.6,51.9,29.63,SSE,158,11.2,14.3,68,0.00,,,0.04,WUHU216HW,2013-05-28 21:05:00,
2013-05-28 14:10:00,63.0,51.8,29.64,SW,225,4.9,11.4,67,0.00,,,0.04,WUHU216HW,2013-05-28 21:10:00,
2013-05-28 14:15:00,62.5,51.0,29.64,West,270,9.2,12.8,66,0.00,,,0.04,WUHU216HW,2013-05-28 21:15:00,
2013-05-28 14:20:00,62.5,51.0,29.64,SW,225,5.4,12.8,66,0.00,,,0.04,WUHU216HW,2013-05-28 21:20:00,
2013-05-28 14:25:00,62.5,51.8,29.63,SE,135,7.2,9.2,68,0.00,,,0.04,WUHU216HW,2013-05-28 21:25:00,
2013-05-28 14:30:00,62.6,51.9,29.63,SSW,203,1.8,12.8,68,0.00,,,0.04,WUHU216HW,2013-05-28 21:30:00,
2013-05-28 14:35:00,63.5,51.6,29.62,South,180,6.5,12.8,65,0.00,,,0.04,WUHU216HW,2013-05-28 21:35:00,
2013-05-28 14:40:00,63.5,51.6,29.63,WSW,248,4.7,10.1,65,0.00,,,0.04,WUHU216HW,2013-05-28 21:40:00,
2013-05-28 14:45:00,64.1,52.9,29.63,SSE,158,7.6,7.6,67,0.00,,,0.04,WUHU216HW,2013-05-28 21:45:00,
2013-05-28 14:50:00,63.9,51.5,29.63,SSW,203,6.0,15.9,64,0.00,,,0.04,WUHU216HW,2013-05-28 21:50:00,
2013-05-28 14:55:00,62.8,50.4,29.63,WSW,248,6.3,15.9,64,0.00,,,0.04,WUHU216HW,2013-05-28 21:55:00,
2013-05-28 15:00:00,61.2,51.0,29.63,WSW,248,8.7,12.8,69,0.00,,,0.04,WUHU216HW,2013-05-28 22:00:00,
2013-05-28 15:05:00,60.1,50.0,29.63,WSW,248,4.7,12.8,69,0.00,,,0.04,WUHU216HW,2013-05-28 22:05:00,
2013-05-28 15:10:00,60.1,50.4,29.63,SW,225,2.0,11.0,70,0.00,,,0.04,WUHU216HW,2013-05-28 22:10:00,
2013-05-28 15:15:00,60.5,51.5,29.63,SW,225,2.5,9.2,72,0.00,,,0.04,WUHU216HW,2013-05-28 22:15:00,
2013-05-28 15:20:00,61.7,52.3,29.63,SSE,158,4.0,6.9,71,0.00,,,0.04,WUHU216HW,2013-05-28 22:20:00,
2013-05-28 15:25:00,62.8,52.1,29.63,SSE,158,4.7,11.4,68,0.00,,,0.04,WUHU216HW,2013-05-28 22:25:00,
2013-05-28 15:30:00,62.6,50.2,29.63,WSW,248,7.6,15.4,64,0.00,,,0.04,WUHU216HW,2013-05-28 22:30:00,
2013-05-28 15:35:00,61.9,50.1,29.63,SSE,158,8.5,15.4,65,0.00,,,0.04,WUHU216HW,2013-05-28 22:35:00,
2013-05-28 15:40:00,61.6,49.7,29.63,WSW,248,10.5,10.5,65,0.00,,,0.04,WUHU216HW,2013-05-28 22:40:00,
2013-05-28 15:45:00,61.2,49.4,29.63,SSW,203,5.4,10.5,65,0.00,,,0.04,WUHU216HW,2013-05-28 22:45:00,
2013-05-28 15:50:00,61.2,49.8,29.63,South,180,6.9,11.4,66,0.00,,,0.04,WUHU216HW,2013-05-28 22:50:00,
2013-05-28 15:55:00,61.7,50.7,29.62,WSW,248,4.7,11.4,67,0.00,,,0.04,WUHU216HW,2013-05-28 22:55:00,
2013-05-28 16:00:00,62.3,51.2,29.63,SSE,158,9.4,9.4,67,0.00,,,0.04,WUHU216HW,2013-05-28 23:00:00,
2013-05-28 16:05:00,62.6,50.2,29.63,SSE,158,7.4,11.9,64,0.00,,,0.04,WUHU216HW,2013-05-28 23:05:00,
2013-05-28 16:10:00,62.8,51.3,29.63,SW,225,3.1,11.9,66,0.00,,,0.04,WUHU216HW,2013-05-28 23:10:00,
2013-05-28 16:15:00,63.0,51.0,29.64,East,90,7.8,7.8,65,0.00,,,0.04,WUHU216HW,2013-05-28 23:15:00,
2013-05-28 16:20:00,62.6,49.9,29.63,WNW,293,6.9,8.1,63,0.00,,,0.04,WUHU216HW,2013-05-28 23:20:00,
2013-05-28 16:25:00,61.7,49.4,29.63,West,270,14.3,14.3,64,0.00,,,0.04,WUHU216HW,2013-05-28 23:25:00,
2013-05-28 16:30:00,61.4,49.5,29.62,WSW,248,12.8,14.3,65,0.00,,,0.04,WUHU216HW,2013-05-28 23:30:00,
2013-05-28 16:35:00,61.0,50.0,29.63,WSW,248,11.6,14.3,67,0.00,,,0.04,WUHU216HW,2013-05-28 23:35:00,
2013-05-28 16:40:00,60.8,49.1,29.63,WSW,248,9.2,13.4,65,0.00,,,0.04,WUHU216HW,2013-05-28 23:40:00,
2013-05-28 16:45:00,60.3,48.1,29.63,WSW,248,11.6,13.6,64,0.00,,,0.04,WUHU216HW,2013-05-28 23:45:00,
2013-05-28 16:50:00,59.4,47.2,29.63,WSW,248,7.4,13.9,64,0.00,,,0.04,WUHU216HW,2013-05-28 23:50:00,
2013-05-28 16:55:00,59.6,48.3,29.63,SSE,158,4.3,13.9,66,0.00,,,0.04,WUHU216HW,2013-05-28 23:55:00,
2013-05-28 17:00:00,59.8,48.8,29.63,SW,225,4.7,7.6,67,0.00,,,0.04,WUHU216HW,2013-05-29 00:00:00,
2013-05-28 17:05:00,60.1,48.8,29.62,WSW,248,4.7,7.6,66,0.00,,,0.04,WUHU216HW,2013-05-29 00:05:00,
2013-05-28 17:10:00,60.3,48.5,29.63,SW,225,4.7,7.4,65,0.00,,,0.04,WUHU216HW,2013-05-29 00:10:00,
2013-05-28 17:15:00,59.9,48.6,29.62,ESE,113,6.0,12.3,66,0.00,,,0.04,WUHU216HW,2013-05-29 00:15:00,
2013-05-28 17:20:00,60.1,48.3,29.62,WNW,293,8.1,12.3,65,0.00,,,0.04,WUHU216HW,2013-05-29 00:20:00,
2013-05-28 17:25:00,59.9,48.6,29.62,NNE,23,2.9,9.6,66,0.00,,,0.04,WUHU216HW,2013-05-29 00:25:00,
2013-05-28 17:30:00,59.9,49.0,29.62,WNW,293,1.1,8.5,67,0.00,,,0.04,WUHU216HW,2013-05-29 00:30:00,
2013-05-28 17:35:00,60.1,48.3,29.62,South,180,4.0,13.9,65,0.00,,,0.04,WUHU216HW,2013-05-29 00:35:00,
2013-05-28 17:40:00,60.1,48.3,29.62,WNW,293,5.1,13.9,65,0.00,,,0.04,WUHU216HW,2013-05-29 00:40:00,
2013-05-28 17:45:00,60.3,49.0,29.61,WSW,248,3.8,11.4,66,0.00,,,0.04,WUHU216HW,2013-05-29 00:45:00,
2013-05-28 17:50:00,60.5,48.7,29.61,South,180,2.7,6.0,65,0.00,,,0.04,WUHU216HW,2013-05-29 00:50:00,
2013-05-28 17:55:00,60.5,48.7,29.61,SW,225,3.4,14.3,65,0.00,,,0.04,WUHU216HW,2013-05-29 00:55:00,
2013-05-28 18:00:00,60.7,48.9,29.61,SSE,158,9.6,14.3,65,0.00,,,0.04,WUHU216HW,2013-05-29 01:00:00,
2013-05-28 18:05:00,60.5,48.7,29.61,SSE,158,7.4,12.8,65,0.00,,,0.04,WUHU216HW,2013-05-29 01:05:00,
2013-05-28 18:10:00,60.3,48.5,29.61,SSE,158,5.4,12.8,65,0.00,,,0.04,WUHU216HW,2013-05-29 01:10:00,
2013-05-28 18:15:00,60.1,48.3,29.60,SE,135,6.9,11.6,65,0.00,,,0.04,WUHU216HW,2013-05-29 01:15:00,
2013-05-28 18:20:00,60.1,48.3,29.60,West,270,6.9,11.4,65,0.00,,,0.04,WUHU216HW,2013-05-29 01:20:00,
2013-05-28 18:25:00,59.6,47.3,29.60,SSW,203,5.1,11.4,64,0.00,,,0.04,WUHU216HW,2013-05-29 01:25:00,
2013-05-28 18:30:00,59.2,47.9,29.60,South,180,2.5,8.1,66,0.00,,,0.04,WUHU216HW,2013-05-29 01:30:00,
2013-05-28 18:35:00,59.4,48.4,29.60,SSE,158,4.7,6.9,67,0.00,,,0.04,WUHU216HW,2013-05-29 01:35:00,
2013-05-28 18:40:00,59.4,48.4,29.59,SSE,158,4.7,6.9,67,0.00,,,0.04,WUHU216HW,2013-05-29 01:40:00,
2013-05-28 18:45:00,59.8,48.8,29.59,SSE,158,3.1,5.6,67,0.00,,,0.04,WUHU216HW,2013-05-29 01:45:00,
2013-05-28 18:50:00,59.4,47.2,29.59,WSW,248,7.4,10.5,64,0.00,,,0.04,WUHU216HW,2013-05-29 01:50:00,
2013-05-28 18:55:00,58.9,47.9,29.59,WSW,248,2.5,10.5,67,0.00,,,0.04,WUHU216HW,2013-05-29 01:55:00,
2013-05-28 19:00:00,58.7,47.7,29.59,WNW,293,2.5,7.4,67,0.00,,,0.04,WUHU216HW,2013-05-29 02:00:00,
2013-05-28 19:05:00,58.7,47.7,29.59,West,270,2.9,6.3,67,0.00,,,0.04,WUHU216HW,2013-05-29 02:05:00,
2013-05-28 19:10:00,58.5,47.5,29.59,WSW,248,3.8,5.4,67,0.00,,,0.04,WUHU216HW,2013-05-29 02:10:00,
2013-05-28 19:15:00,58.7,48.2,29.58,WSW,248,2.7,5.4,68,0.00,,,0.04,WUHU216HW,2013-05-29 02:15:00,
2013-05-28 19:20:00,59.4,48.9,29.58,West,270,2.2,5.4,68,0.00,,,0.04,WUHU216HW,2013-05-29 02:20:00,
2013-05-28 19:25:00,60.5,49.5,29.58,SSE,158,3.4,3.4,67,0.00,,,0.04,WUHU216HW,2013-05-29 02:25:00,
2013-05-28 19:30:00,61.2,50.2,29.57,SSE,158,1.1,3.4,67,0.00,,,0.04,WUHU216HW,2013-05-29 02:30:00,
2013-05-28 19:35:00,61.0,49.2,29.58,SSW,203,1.1,4.7,65,0.00,,,0.04,WUHU216HW,2013-05-29 02:35:00,
2013-05-28 19:40:00,60.7,48.9,29.57,SSE,158,4.7,5.4,65,0.00,,,0.04,WUHU216HW,2013-05-29 02:40:00,
2013-05-28 19:45:00,60.1,48.8,29.57,SSE,158,4.0,5.4,66,0.00,,,0.04,WUHU216HW,2013-05-29 02:45:00,
2013-05-28 19:50:00,59.2,48.2,29.57,ESE,113,3.8,5.4,67,0.00,,,0.04,WUHU216HW,2013-05-29 02:50:00,
2013-05-28 19:55:00,58.7,48.2,29.57,SSE,158,2.5,5.4,68,0.00,,,0.04,WUHU216HW,2013-05-29 02:55:00,
2013-05-28 20:00:00,58.1,47.6,29.57,SSE,158,1.1,3.8,68,0.00,,,0.04,WUHU216HW,2013-05-29 03:00:00,
2013-05-28 20:05:00,58.0,47.9,29.57,SE,135,1.8,2.7,69,0.00,,,0.04,WUHU216HW,2013-05-29 03:05:00,
2013-05-28 20:10:00,57.6,47.9,29.57,SE,135,3.1,3.1,70,0.00,,,0.04,WUHU216HW,2013-05-29 03:10:00,
2013-05-28 20:15:00,57.4,48.1,29.57,SE,135,1.1,3.6,71,0.00,,,0.04,WUHU216HW,2013-05-29 03:15:00,
2013-05-28 20:20:00,57.2,47.9,29.57,SE,135,1.6,3.6,71,0.00,,,0.04,WUHU216HW,2013-05-29 03:20:00,
2013-05-28 20:25:00,57.1,48.1,29.56,SE,135,3.8,4.0,72,0.00,,,0.04,WUHU216HW,2013-05-29 03:25:00,
2013-05-28 20:30:00,56.7,47.7,29.57,SSE,158,3.1,4.5,72,0.00,,,0.04,WUHU216HW,2013-05-29 03:30:00,
2013-05-28 20:35:00,56.3,47.8,29.56,SE,135,2.9,4.5,73,0.00,,,0.04,WUHU216HW,2013-05-29 03:35:00,
2013-05-28 20:40:00,56.2,47.6,29.56,SE,135,2.5,3.8,73,0.00,,,0.04,WUHU216HW,2013-05-29 03:40:00,
2013-05-28 20:45:00,56.0,47.8,29.55,SE,135,2.5,3.6,74,0.00,,,0.04,WUHU216HW,2013-05-29 03:45:00,
2013-05-28 20:50:00,55.8,47.6,29.55,SE,135,4.0,4.0,74,0.00,,,0.04,WUHU216HW,2013-05-29 03:50:00,
2013-05-28 20:55:00,55.4,47.6,29.55,South,180,1.3,4.0,75,0.00,,,0.04,WUHU216HW,2013-05-29 03:55:00,
2013-05-28 21:00:00,55.3,47.4,29.54,SE,135,0.0,4.0,75,0.00,,,0.04,WUHU216HW,2013-05-29 04:00:00,
2013-05-28 21:01:00,55.3,47.4,29.54,SE,135,0.4,2.5,75,0.00,,,0.04,WUHU216HW,2013-05-29 04:01:00,
2013-05-28 21:02:00,55.3,47.4,29.54,SE,135,1.1,2.2,75,0.00,,,0.04,WUHU216HW,2013-05-29 04:02:00,
2013-05-28 21:07:00,55.1,47.6,29.54,SE,135,1.8,2.5,76,0.00,,,0.04,WUHU216HW,2013-05-29 04:07:00,
2013-05-28 21:12:00,54.9,47.4,29.54,SSE,158,1.3,2.5,76,0.00,,,0.04,WUHU216HW,2013-05-29 04:12:00,
2013-05-28 21:17:00,54.7,47.3,29.54,SSW,203,0.4,2.5,76,0.00,,,0.04,WUHU216HW,2013-05-29 04:17:00,
2013-05-28 21:22:00,54.7,47.3,29.54,WSW,248,0.0,1.3,76,0.00,,,0.04,WUHU216HW,2013-05-29 04:22:00,
2013-05-28 21:27:00,54.4,47.0,29.54,North,0,0.9,1.3,76,0.00,,,0.04,WUHU216HW,2013-05-29 04:27:00,
2013-05-28 21:32:00,53.6,46.3,29.54,North,0,0.9,1.8,76,0.00,,,0.04,WUHU216HW,2013-05-29 04:32:00,
2013-05-28 21:37:00,53.6,46.6,29.54,WSW,248,1.3,2.5,77,0.00,,,0.04,WUHU216HW,2013-05-29 04:37:00,
2013-05-28 21:42:00,53.5,46.8,29.55,SW,225,0.0,2.5,78,0.00,,,0.04,WUHU216HW,2013-05-29 04:42:00,
2013-05-28 21:47:00,53.5,46.8,29.55,ESE,113,1.3,1.3,78,0.00,,,0.04,WUHU216HW,2013-05-29 04:47:00,
2013-05-28 21:52:00,53.3,46.6,29.54,ESE,113,1.1,1.6,78,0.00,,,0.04,WUHU216HW,2013-05-29 04:52:00,
2013-05-28 21:57:00,53.1,46.8,29.54,ESE,113,2.7,2.7,79,0.00,,,0.04,WUHU216HW,2013-05-29 04:57:00,
2013-05-28 22:02:00,53.1,46.8,29.54,SSE,158,1.1,2.7,79,0.00,,,0.04,WUHU216HW,2013-05-29 05:02:00,
2013-05-28 22:07:00,52.9,46.6,29.54,ESE,113,1.6,2.7,79,0.00,,,0.04,WUHU216HW,2013-05-29 05:07:00,
2013-05-28 22:12:00,52.7,46.8,29.53,SE,135,1.1,1.8,80,0.00,,,0.04,WUHU216HW,2013-05-29 05:12:00,
2013-05-28 22:17:00,52.7,46.8,29.53,South,180,1.8,2.0,80,0.00,,,0.04,WUHU216HW,2013-05-29 05:17:00,
2013-05-28 22:22:00,52.7,46.8,29.53,SE,135,1.1,2.0,80,0.00,,,0.04,WUHU216HW,2013-05-29 05:22:00,
2013-05-28 22:27:00,52.7,46.8,29.52,SE,135,0.7,1.8,80,0.00,,,0.04,WUHU216HW,2013-05-29 05:27:00,
2013-05-28 22:32:00,52.7,46.8,29.53,SW,225,1.1,1.6,80,0.00,,,0.04,WUHU216HW,2013-05-29 05:32:00,
2013-05-28 22:37:00,52.6,46.6,29.53,WSW,248,1.1,1.3,80,0.00,,,0.04,WUHU216HW,2013-05-29 05:37:00,
2013-05-28 22:42:00,52.6,46.6,29.53,WSW,248,0.0,1.3,80,0.00,,,0.04,WUHU216HW,2013-05-29 05:42:00,
2013-05-28 22:47:00,52.2,46.5,29.53,NNE,23,1.6,2.0,81,0.00,,,0.04,WUHU216HW,2013-05-29 05:47:00,
2013-05-28 22:52:00,52.0,46.4,29.53,North,0,0.0,2.0,81,0.00,,,0.04,WUHU216HW,2013-05-29 05:52:00,
2013-05-28 22:57:00,51.8,46.5,29.52,NNW,338,0.4,1.6,82,0.00,,,0.04,WUHU216HW,2013-05-29 05:57:00,
2013-05-28 23:02:00,51.7,46.6,29.52,WNW,293,0.4,0.9,83,0.00,,,0.04,WUHU216HW,2013-05-29 06:02:00,
2013-05-28 23:07:00,51.3,46.3,29.52,WSW,248,0.9,1.6,83,0.00,,,0.04,WUHU216HW,2013-05-29 06:07:00,
2013-05-28 23:12:00,51.5,46.4,29.52,SW,225,0.4,1.6,83,0.00,,,0.04,WUHU216HW,2013-05-29 06:12:00,
2013-05-28 23:17:00,51.5,46.4,29.51,West,270,0.0,1.6,83,0.00,,,0.04,WUHU216HW,2013-05-29 06:17:00,
2013-05-28 23:22:00,51.7,46.6,29.51,WSW,248,0.2,0.4,83,0.00,,,0.04,WUHU216HW,2013-05-29 06:22:00,
2013-05-28 23:27:00,51.7,46.6,29.51,WSW,248,0.4,1.1,83,0.00,,,0.04,WUHU216HW,2013-05-29 06:27:00,
2013-05-28 23:32:00,51.7,46.6,29.50,South,180,0.7,1.1,83,0.00,,,0.04,WUHU216HW,2013-05-29 06:32:00,
2013-05-28 23:37:00,51.7,46.6,29.50,SE,135,1.3,1.8,83,0.00,,,0.04,WUHU216HW,2013-05-29 06:37:00,
2013-05-28 23:42:00,51.7,46.6,29.50,ESE,113,1.8,1.8,83,0.00,,,0.04,WUHU216HW,2013-05-29 06:42:00,
2013-05-28 23:47:00,51.7,47.0,29.50,ESE,113,1.8,2.2,84,0.00,,,0.04,WUHU216HW,2013-05-29 06:47:00,
2013-05-28 23:52:00,51.7,47.0,29.50,ESE,113,1.6,2.5,84,0.00,,,0.04,WUHU216HW,2013-05-29 06:52:00,
2013-05-28 23:57:00,51.7,47.0,29.50,ESE,113,0.9,2.5,84,0.00,,,0.04,WUHU216HW,2013-05-29 06:57:00,